Terminal Aerodrome Forecast
Issued by NWS La Crosse, WI

Home | Current Version | Previous Version | Text Only | Print | Product List | Glossary On
Versions: 1 2 3 4 5 6 7 8 9 10 11 12 13 14 15 16 17 18 19 20 21 22 23 24 25 26 27 28 29 30 31 32 33 34 35 36 37 38 39 40 41 42 43 44 45 46 47 48 49 50
000
FTUS43 KARX 222322
TAFRST
TAF
KRST 222322Z 2300/2324 36006KT P6SM SCT025
     FM230600 05005KT 2SM BR OVC006
      TEMPO 2309/2313 1/4SM FG OVC002
     FM231500 09007KT 5SM HZ BKN008
     FM231700 11009KT P6SM SCT030=

USA.gov is the U.S. government's official web portal to all federal, state and local government web resources and services.